Погода в Днепровке

Украина / Запорожская область     47˚25′49″N   34˚36′44″E
темп.,
°C
ветер,
м/с
пор.,
м/с
влажн.,
%
обл.,
%
осадки,
мм/ч
давл.,
гПа
погр.,
м
17 января, вс
вс1723:00−6˚з1271100 0.0 1016317
02:00−7˚ссв4484100 0.0 1015191
05:00−9˚ссв7791100 0.0 1014290
08:00−11˚ссв6888100 0.0 1014359
11:00−10˚ссв5681100 0.0 1015393
14:00−9˚с7879100 0.0 1013402
17:00−10˚ссв6877100 0.0 1014474
20:00−11˚с6782100 0.0 1014412
18 января, пн
пн1823:00−11˚с5589100 0.2 1015343
02:00−11˚с5589100 0.6 1015354
05:00−11˚с4489100 0.1 1015341
08:00−11˚ссз4486100 0.1 1017338
11:00−11˚ссз337994 0.0 1018419
14:00−9˚зсз336965 0.0 1017539
17:00−9˚сз4474100 0.0 1018415
20:00−10˚сз4577100 0.0 1018468
19 января, вт
вт1923:00−10˚сз4481100 0.0 1019581
02:00−11˚сз458297 0.1 1020417
05:00−11˚сз5684100 0.0 1020478
08:00−11˚сз5684100 0.1 1021531
11:00−10˚сз3377100 0.0 1022590
14:00−9˚зсз4574100 0.1 1021848
17:00−9˚зсз4475100 0.0 1022508
20:00−10˚сз3479100 0.1 1022521
20 января, ср
ср2023:00−10˚сз3480100 0.0 1023486
02:00−10˚з3479100 0.0 1024345
05:00−11˚зсз227852 0.0 1024272
08:00−11˚ююз127826 0.0 1025256
11:00−9˚ю22740 0.0 1026328
14:00−7˚ююв22690 0.0 1025392
17:00−9˚юв44800 0.0 1025164
20:00−9˚юв57800 0.0 1026192
21 января, чт
чт2123:00−8˚юв57803 0.0 1026195
02:00−7˚юв598836 0.0 1026211
05:00−5˚юв699559 0.0 1025197
08:00−3˚ююв6119450 0.0 1025269
11:00+1˚ююв7119196 0.0 1025394
14:00+2˚ююв599498 0.0 1023274
17:00+1˚ююв589450 0.0 1023149
20:00+1˚ю579344 0.0 1023118